KLM57J EHAM-LEAL

Flight info

Callsign KLM57J
Flight time 2h 30m
Altitude 33000
Route WOODY N872 CIV DCT KOVIN DCT DUCRA/N0453F350 UM728 RESMI UN857 DISAK DCT DIRMO DCT GUERE DCT EVPOK DCT AGN DCT ANETO DCT POSSY DCT XIMPE DCT RIMES DCT SAURA DCT TATOS DCT PLANA DCT VLC
Aircraft E195/M-SDE3GILORVW/S

Departure

Time 2026-05-04 09:44
Airport Amsterdam Airport Schiphol (EHAM)

Arrival

Time 2026-05-04 12:15
Airport Alicante-Elche Miguel Hernández Airport (LEAL)
Time Latitude Longitude Altitude Speed Heading
2026-05-04 09:31 52.30021 4.75631 0 ft 0 kts 148°
2026-05-04 09:37 52.29823 4.75290 -1 ft 11 kts 230°
2026-05-04 09:37 52.29775 4.75334 -3 ft 11 kts 102°
2026-05-04 09:38 52.29793 4.75468 -2 ft 12 kts 58°
2026-05-04 09:38 52.29841 4.75599 -3 ft 15 kts 60°
2026-05-04 09:38 52.29900 4.75758 -3 ft 17 kts 59°
2026-05-04 09:38 52.29962 4.75924 -2 ft 17 kts 59°
2026-05-04 09:39 52.30025 4.76090 -1 ft 16 kts 56°
2026-05-04 09:39 52.30092 4.76259 -3 ft 18 kts 56°
2026-05-04 09:39 52.30163 4.76437 -2 ft 18 kts 57°
2026-05-04 09:39 52.30232 4.76621 -3 ft 20 kts 61°
2026-05-04 09:40 52.30303 4.76816 -2 ft 19 kts 56°
2026-05-04 09:40 52.30378 4.77003 -1 ft 19 kts 57°
2026-05-04 09:40 52.30448 4.77179 3 ft 17 kts 57°
2026-05-04 09:40 52.30510 4.77344 4 ft 17 kts 59°
2026-05-04 09:41 52.30566 4.77504 5 ft 12 kts 73°
2026-05-04 09:42 52.30395 4.77588 1 ft 0 kts 239°
2026-05-04 09:43 52.30394 4.77586 1 ft 1 kts 239°
2026-05-04 09:43 52.30323 4.77398 1 ft 50 kts 237°
2026-05-04 09:43 52.30019 4.76605 -4 ft 110 kts 237°
2026-05-04 09:43 52.29517 4.75295 -2 ft 158 kts 239°
2026-05-04 09:44 52.28936 4.73685 331 ft 171 kts 240°
2026-05-04 09:44 52.28346 4.71979 844 ft 176 kts 238°
2026-05-04 09:44 52.27659 4.70310 1309 ft 184 kts 231°
2026-05-04 09:46 52.17234 4.74488 3338 ft 268 kts 164°
2026-05-04 09:46 52.15371 4.75303 3562 ft 290 kts 166°
2026-05-04 09:46 52.13414 4.76106 3779 ft 287 kts 167°
2026-05-04 09:47 52.11489 4.76871 3940 ft 275 kts 167°
2026-05-04 09:47 52.09671 4.77584 4089 ft 269 kts 167°
2026-05-04 09:49 51.95470 4.79126 5455 ft 319 kts 206°
2026-05-04 09:49 51.93523 4.77600 5584 ft 309 kts 206°
2026-05-04 09:49 51.91603 4.76096 5709 ft 300 kts 206°
2026-05-04 09:51 51.80994 4.67862 8058 ft 283 kts 206°
2026-05-04 09:51 51.79144 4.66489 8210 ft 305 kts 208°
2026-05-04 09:51 51.77179 4.64895 8286 ft 326 kts 207°
2026-05-04 09:51 51.75152 4.63293 8349 ft 318 kts 207°
2026-05-04 09:52 51.73248 4.61805 8618 ft 292 kts 207°
2026-05-04 09:52 51.71404 4.60370 9116 ft 297 kts 207°
2026-05-04 09:52 51.69589 4.58962 9937 ft 292 kts 207°
2026-05-04 09:52 51.67775 4.57557 10749 ft 286 kts 207°
2026-05-04 09:53 51.66125 4.56283 12343 ft 245 kts 207°
2026-05-04 09:53 51.64669 4.55155 13141 ft 238 kts 208°
2026-05-04 09:53 51.63181 4.54006 13667 ft 243 kts 208°
2026-05-04 09:53 51.61638 4.52814 14222 ft 247 kts 208°
2026-05-04 09:54 51.60089 4.51620 14819 ft 253 kts 207°
2026-05-04 09:54 51.58468 4.50371 15388 ft 261 kts 208°
2026-05-04 09:54 51.56817 4.49101 15947 ft 268 kts 208°
2026-05-04 09:54 51.55123 4.47798 16502 ft 275 kts 207°
2026-05-04 09:55 51.53399 4.46473 17069 ft 282 kts 208°
2026-05-04 09:55 51.51599 4.45091 17548 ft 292 kts 208°
2026-05-04 09:55 51.49733 4.43659 17842 ft 308 kts 207°
2026-05-04 09:55 51.47822 4.42198 18751 ft 300 kts 208°
2026-05-04 09:56 51.45948 4.40761 19433 ft 302 kts 208°
2026-05-04 09:56 51.44039 4.39300 19806 ft 315 kts 208°
2026-05-04 09:56 51.41980 4.37727 19819 ft 338 kts 208°
2026-05-04 09:56 51.39754 4.36190 19852 ft 361 kts 199°
2026-05-04 09:57 51.37231 4.35425 19904 ft 384 kts 187°
2026-05-04 09:57 51.34460 4.35581 19945 ft 407 kts 174°
2026-05-04 09:57 51.31677 4.36734 20010 ft 429 kts 162°
2026-05-04 09:57 51.28989 4.38924 20127 ft 436 kts 149°
2026-05-04 09:58 51.26728 4.41934 20202 ft 418 kts 136°
2026-05-04 09:58 51.24947 4.45608 20160 ft 424 kts 124°
2026-05-04 09:58 51.23669 4.49888 20128 ft 427 kts 111°
2026-05-04 10:00 51.31038 4.77497 21893 ft 420 kts 23°
2026-05-04 10:00 51.33792 4.79052 22010 ft 421 kts 11°
2026-05-04 10:02 51.44429 4.62857 24776 ft 377 kts 235°
2026-05-04 10:04 51.34866 4.38756 29066 ft 372 kts 237°
2026-05-04 10:04 51.33525 4.35136 29477 ft 376 kts 237°
2026-05-04 10:04 51.31974 4.31781 29923 ft 376 kts 226°
2026-05-04 10:04 51.30029 4.28964 30404 ft 376 kts 216°
2026-05-04 10:05 51.27808 4.26826 30877 ft 377 kts 206°
2026-05-04 10:05 51.25424 4.25101 31256 ft 380 kts 206°
2026-05-04 10:05 51.23028 4.23313 31501 ft 379 kts 206°
2026-05-04 10:05 51.20649 4.21521 31647 ft 381 kts 206°
2026-05-04 10:06 51.18250 4.19711 31772 ft 383 kts 206°
2026-05-04 10:06 51.15817 4.18008 32009 ft 387 kts 200°
2026-05-04 10:06 51.15469 4.17813 32060 ft 388 kts 200°
2026-05-04 10:08 51.01853 4.10356 32963 ft 417 kts 201°
2026-05-04 10:08 50.99100 4.08852 32964 ft 425 kts 200°
2026-05-04 10:08 50.93466 4.05782 32951 ft 427 kts 200°
2026-05-04 10:09 50.87907 4.02758 32954 ft 418 kts 201°
2026-05-04 10:09 50.82468 3.99274 32957 ft 424 kts 203°
2026-05-04 10:10 50.77009 3.95770 32945 ft 416 kts 203°
2026-05-04 10:10 50.71706 3.92381 32949 ft 414 kts 203°
2026-05-04 10:11 50.66374 3.88985 32956 ft 413 kts 203°
2026-05-04 10:11 50.61034 3.85591 32966 ft 415 kts 203°
2026-05-04 10:12 50.55685 3.82131 32971 ft 415 kts 204°
2026-05-04 10:12 50.50399 3.78505 32967 ft 416 kts 204°
2026-05-04 10:13 50.45132 3.74914 32967 ft 414 kts 204°
2026-05-04 10:13 50.39840 3.71318 32965 ft 416 kts 204°
2026-05-04 10:14 50.34532 3.67719 32963 ft 417 kts 204°
2026-05-04 10:16 50.13296 3.53409 32955 ft 418 kts 204°
2026-05-04 10:16 50.07960 3.49835 32956 ft 419 kts 204°
2026-05-04 10:17 50.02617 3.46264 32950 ft 419 kts 204°
2026-05-04 10:19 49.81243 3.32069 32958 ft 419 kts 203°
2026-05-04 10:19 49.75895 3.28539 32957 ft 419 kts 202°
2026-05-04 10:20 49.70575 3.25037 32949 ft 420 kts 202°
2026-05-04 10:20 49.65184 3.21494 32952 ft 419 kts 202°
2026-05-04 10:21 49.59864 3.18006 32951 ft 418 kts 202°
2026-05-04 10:21 49.57405 3.16400 32955 ft 420 kts 202°
2026-05-04 10:22 49.51926 3.12823 32950 ft 419 kts 202°
2026-05-04 10:23 49.50285 3.11752 32946 ft 418 kts 202°
2026-05-04 10:25 49.30779 2.92579 32940 ft 421 kts 212°
2026-05-04 10:25 49.25927 2.87680 32948 ft 421 kts 212°
2026-05-04 10:26 49.21030 2.82746 32942 ft 421 kts 212°
2026-05-04 10:26 49.16127 2.77821 32958 ft 422 kts 212°
2026-05-04 10:27 49.11260 2.72943 32952 ft 422 kts 212°
2026-05-04 10:27 49.06342 2.68025 32957 ft 422 kts 212°
2026-05-04 10:28 49.01461 2.63157 32956 ft 422 kts 212°
2026-05-04 10:28 48.96544 2.58266 32957 ft 421 kts 212°
2026-05-04 10:29 48.91625 2.53381 32957 ft 422 kts 212°
2026-05-04 10:29 48.86676 2.48480 32968 ft 422 kts 212°
2026-05-04 10:30 48.81783 2.43646 32969 ft 423 kts 212°
2026-05-04 10:30 48.76863 2.38797 32968 ft 423 kts 212°
2026-05-04 10:31 48.71926 2.33942 32968 ft 424 kts 211°
2026-05-04 10:32 48.54193 2.18324 32958 ft 422 kts 193°
2026-05-04 10:33 48.48489 2.16491 32944 ft 422 kts 192°
2026-05-04 10:33 48.42733 2.14630 32942 ft 422 kts 192°
2026-05-04 10:34 48.36998 2.12784 32937 ft 422 kts 192°
2026-05-04 10:34 48.31300 2.10954 32940 ft 422 kts 192°
2026-05-04 10:35 48.25467 2.10566 32944 ft 423 kts 174°
2026-05-04 10:35 48.19660 2.11832 32950 ft 423 kts 173°
2026-05-04 10:36 48.13819 2.13059 32957 ft 422 kts 174°
2026-05-04 10:36 48.07972 2.13493 32962 ft 422 kts 179°
2026-05-04 10:37 48.02116 2.13829 32961 ft 422 kts 179°
2026-05-04 10:37 47.96252 2.14174 32966 ft 422 kts 179°
2026-05-04 10:39 47.75733 2.15375 32970 ft 423 kts 179°
2026-05-04 10:40 47.69848 2.15717 32969 ft 423 kts 179°
2026-05-04 10:40 47.63952 2.16060 32965 ft 422 kts 179°
2026-05-04 10:41 47.58107 2.16399 32966 ft 422 kts 179°
2026-05-04 10:41 47.52261 2.16737 32966 ft 422 kts 179°
2026-05-04 10:42 47.46418 2.17074 32963 ft 422 kts 179°
2026-05-04 10:42 47.40582 2.17410 32962 ft 422 kts 179°
2026-05-04 10:43 47.34706 2.17748 32962 ft 421 kts 179°
2026-05-04 10:45 47.11321 2.19085 32959 ft 422 kts 179°
2026-05-04 10:45 47.05475 2.18847 32967 ft 421 kts 185°
2026-05-04 10:46 46.99640 2.18149 32958 ft 420 kts 185°
2026-05-04 10:46 46.93849 2.17477 32956 ft 421 kts 185°
2026-05-04 10:47 46.88016 2.16803 32966 ft 421 kts 185°
2026-05-04 10:47 46.82176 2.16131 32965 ft 421 kts 185°
2026-05-04 10:49 46.58830 2.13456 32956 ft 422 kts 185°
2026-05-04 10:50 46.52947 2.12785 32955 ft 423 kts 185°
2026-05-04 10:52 46.29561 2.10135 32944 ft 423 kts 185°
2026-05-04 10:52 46.23667 2.09470 32938 ft 423 kts 185°
2026-05-04 10:54 46.05795 1.95633 32934 ft 426 kts 213°
2026-05-04 10:54 46.03381 1.93198 32935 ft 424 kts 213°
2026-05-04 10:56 45.83969 1.73765 32943 ft 426 kts 213°
2026-05-04 10:57 45.79129 1.68947 32945 ft 426 kts 214°
2026-05-04 10:57 45.74250 1.64101 32941 ft 426 kts 214°
2026-05-04 10:58 45.69418 1.59311 32939 ft 426 kts 214°
2026-05-04 10:58 45.64570 1.54515 32941 ft 425 kts 214°
2026-05-04 10:59 45.59724 1.49733 32941 ft 425 kts 214°
2026-05-04 10:59 45.54851 1.44934 32939 ft 425 kts 214°
2026-05-04 11:00 45.50016 1.40183 32937 ft 424 kts 213°
2026-05-04 11:01 45.30296 1.32056 32938 ft 423 kts 194°
2026-05-04 11:02 45.27439 1.31129 32936 ft 423 kts 194°
2026-05-04 11:05 44.84449 1.17304 32937 ft 422 kts 194°
2026-05-04 11:06 44.78722 1.15478 32924 ft 422 kts 194°
2026-05-04 11:06 44.72993 1.13655 32938 ft 422 kts 194°
2026-05-04 11:10 44.33105 1.01066 32927 ft 419 kts 195°
2026-05-04 11:12 44.10339 0.93960 32924 ft 421 kts 195°
2026-05-04 11:12 44.04653 0.92193 32931 ft 420 kts 195°
2026-05-04 11:13 43.98962 0.90429 32941 ft 419 kts 195°
2026-05-04 11:13 43.93321 0.88684 32938 ft 419 kts 195°
2026-05-04 11:14 43.87615 0.86956 32947 ft 418 kts 194°
2026-05-04 11:16 43.64816 0.80876 32939 ft 415 kts 194°
2026-05-04 11:16 43.59154 0.79369 32943 ft 416 kts 194°
2026-05-04 11:17 43.53507 0.77871 32939 ft 415 kts 194°
2026-05-04 11:19 43.30838 0.71880 32933 ft 412 kts 195°
2026-05-04 11:19 43.25192 0.70395 32932 ft 413 kts 195°
2026-05-04 11:20 43.19566 0.68919 32934 ft 412 kts 195°
2026-05-04 11:20 43.13936 0.67444 32939 ft 411 kts 195°
2026-05-04 11:22 42.91478 0.61587 32936 ft 410 kts 195°
2026-05-04 11:23 42.85894 0.60139 32951 ft 409 kts 195°
2026-05-04 11:25 42.66526 0.54185 32971 ft 403 kts 210°
2026-05-04 11:25 42.61470 0.50839 32957 ft 404 kts 208°
2026-05-04 11:27 42.42142 0.38488 32943 ft 401 kts 208°
2026-05-04 11:28 42.37115 0.35292 32937 ft 402 kts 208°
2026-05-04 11:28 42.32051 0.32079 32947 ft 401 kts 208°
2026-05-04 11:29 42.27014 0.28890 32945 ft 401 kts 208°
2026-05-04 11:29 42.21971 0.25701 32942 ft 401 kts 208°
2026-05-04 11:31 42.04037 0.15381 32933 ft 407 kts 192°
2026-05-04 11:33 41.84202 0.12430 32934 ft 409 kts 191°
2026-05-04 11:33 41.78554 0.11587 32929 ft 411 kts 192°
2026-05-04 11:34 41.72866 0.10740 32925 ft 410 kts 192°
2026-05-04 11:34 41.67205 0.09897 32924 ft 411 kts 192°
2026-05-04 11:35 41.61530 0.09055 32927 ft 410 kts 192°
2026-05-04 11:35 41.55851 0.08212 32925 ft 412 kts 192°
2026-05-04 11:36 41.50144 0.07367 32921 ft 411 kts 192°
2026-05-04 11:36 41.44468 0.06529 32919 ft 412 kts 192°
2026-05-04 11:37 41.38800 0.05694 32917 ft 411 kts 192°
2026-05-04 11:37 41.33145 0.04862 32899 ft 411 kts 192°
2026-05-04 11:38 41.27451 0.04025 32886 ft 412 kts 192°
2026-05-04 11:38 41.21776 0.03193 32888 ft 411 kts 192°
2026-05-04 11:39 41.16070 0.02357 32895 ft 412 kts 192°
2026-05-04 11:41 40.96070 -0.00564 32908 ft 413 kts 192°
2026-05-04 11:41 40.90362 -0.01393 32913 ft 411 kts 192°
2026-05-04 11:42 40.84655 -0.02222 32934 ft 412 kts 192°
2026-05-04 11:42 40.78975 -0.03046 32940 ft 411 kts 192°
2026-05-04 11:43 40.73260 -0.03874 32948 ft 413 kts 192°
2026-05-04 11:43 40.67563 -0.04697 32953 ft 412 kts 192°
2026-05-04 11:44 40.61869 -0.05518 32958 ft 412 kts 192°
2026-05-04 11:44 40.56190 -0.06364 32963 ft 410 kts 195°
2026-05-04 11:45 40.50766 -0.08363 32974 ft 402 kts 202°
2026-05-04 11:45 40.48171 -0.09406 32943 ft 381 kts 202°
2026-05-04 11:45 40.45638 -0.10418 32932 ft 379 kts 202°
2026-05-04 11:46 40.40567 -0.12430 32927 ft 382 kts 202°
2026-05-04 11:46 40.35498 -0.14434 32914 ft 381 kts 202°
2026-05-04 11:47 40.30405 -0.16443 32901 ft 382 kts 201°
2026-05-04 11:47 40.25333 -0.18441 32878 ft 380 kts 201°
2026-05-04 11:48 40.20271 -0.20432 32960 ft 380 kts 202°
2026-05-04 11:48 40.15223 -0.22415 32953 ft 380 kts 202°
2026-05-04 11:49 40.10162 -0.24399 32945 ft 382 kts 202°
2026-05-04 11:49 40.05088 -0.26385 32949 ft 380 kts 202°
2026-05-04 11:50 39.99989 -0.28378 32942 ft 382 kts 202°
2026-05-04 11:50 39.94923 -0.30354 32942 ft 382 kts 202°
2026-05-04 11:51 39.89830 -0.32337 32945 ft 381 kts 202°
2026-05-04 11:51 39.84739 -0.34319 32951 ft 381 kts 202°
2026-05-04 11:52 39.79740 -0.36259 32868 ft 361 kts 202°
2026-05-04 11:52 39.77390 -0.37171 32666 ft 347 kts 203°
2026-05-04 11:52 39.75126 -0.38050 32512 ft 337 kts 203°
2026-05-04 11:53 39.70530 -0.39836 32553 ft 351 kts 202°
2026-05-04 11:53 39.65886 -0.41632 32540 ft 350 kts 203°
2026-05-04 11:55 39.47290 -0.48777 32476 ft 349 kts 201°
2026-05-04 11:56 39.42608 -0.50442 32342 ft 339 kts 202°
2026-05-04 11:56 39.40361 -0.51243 31713 ft 333 kts 202°
2026-05-04 11:56 39.38136 -0.52039 30790 ft 334 kts 202°
2026-05-04 11:56 39.35908 -0.52833 29811 ft 335 kts 202°
2026-05-04 11:57 39.33678 -0.53627 28889 ft 334 kts 202°
2026-05-04 11:57 39.31449 -0.54421 28044 ft 331 kts 202°
2026-05-04 11:57 39.29254 -0.55200 27282 ft 327 kts 202°
2026-05-04 11:57 39.27100 -0.55967 26514 ft 323 kts 202°
2026-05-04 11:58 39.24937 -0.56734 25756 ft 319 kts 202°
2026-05-04 11:58 39.22829 -0.57483 24977 ft 316 kts 201°
2026-05-04 11:58 39.20745 -0.58222 24193 ft 313 kts 201°
2026-05-04 11:58 39.18651 -0.58966 23406 ft 310 kts 201°
2026-05-04 11:59 39.16607 -0.59689 22647 ft 307 kts 201°
2026-05-04 11:59 39.14568 -0.60411 21908 ft 304 kts 201°
2026-05-04 11:59 39.12525 -0.61135 21131 ft 302 kts 201°
2026-05-04 11:59 39.10524 -0.61842 20361 ft 300 kts 201°
2026-05-04 12:00 39.08542 -0.62543 19631 ft 298 kts 201°
2026-05-04 12:00 39.06546 -0.63248 18920 ft 295 kts 201°
2026-05-04 12:00 39.04567 -0.63947 18183 ft 294 kts 201°
2026-05-04 12:00 39.02616 -0.64636 17472 ft 292 kts 201°
2026-05-04 12:01 39.00674 -0.65320 16769 ft 290 kts 201°
2026-05-04 12:01 38.98734 -0.66005 16043 ft 290 kts 200°
2026-05-04 12:02 38.87255 -0.70043 12114 ft 281 kts 199°
2026-05-04 12:03 38.85409 -0.70691 11528 ft 278 kts 199°
2026-05-04 12:03 38.83545 -0.71345 10923 ft 276 kts 199°
2026-05-04 12:03 38.81681 -0.72000 10285 ft 275 kts 199°
2026-05-04 12:03 38.79831 -0.72648 9667 ft 274 kts 198°
2026-05-04 12:04 38.77989 -0.73293 9037 ft 274 kts 198°
2026-05-04 12:04 38.76160 -0.73934 8417 ft 273 kts 197°
2026-05-04 12:04 38.74320 -0.74578 7816 ft 272 kts 197°
2026-05-04 12:04 38.72492 -0.75217 7224 ft 270 kts 197°
2026-05-04 12:05 38.70676 -0.75852 7025 ft 270 kts 197°
2026-05-04 12:05 38.68869 -0.76546 6994 ft 269 kts 197°
2026-05-04 12:05 38.67075 -0.77143 6987 ft 270 kts 195°
2026-05-04 12:05 38.65238 -0.77694 6990 ft 270 kts 194°
2026-05-04 12:06 38.63387 -0.78218 6988 ft 271 kts 194°
2026-05-04 12:06 38.61549 -0.78723 6914 ft 271 kts 194°
2026-05-04 12:06 38.59682 -0.79229 6788 ft 271 kts 193°
2026-05-04 12:06 38.57863 -0.79719 6788 ft 270 kts 194°
2026-05-04 12:07 38.56001 -0.80219 6784 ft 272 kts 194°
2026-05-04 12:07 38.54144 -0.80716 6784 ft 272 kts 194°
2026-05-04 12:07 38.52289 -0.81213 6778 ft 271 kts 194°
2026-05-04 12:07 38.50447 -0.81705 6779 ft 272 kts 194°
2026-05-04 12:08 38.48592 -0.82201 6778 ft 272 kts 193°
2026-05-04 12:08 38.46724 -0.82700 6625 ft 274 kts 193°
2026-05-04 12:08 38.44866 -0.83195 6363 ft 272 kts 193°
2026-05-04 12:08 38.43019 -0.83687 6071 ft 270 kts 193°
2026-05-04 12:09 38.41163 -0.84182 5768 ft 268 kts 193°
2026-05-04 12:09 38.39334 -0.84669 5471 ft 268 kts 193°
2026-05-04 12:09 38.37513 -0.85154 5170 ft 266 kts 193°
2026-05-04 12:09 38.35703 -0.85634 4873 ft 266 kts 192°
2026-05-04 12:10 38.33883 -0.85465 4588 ft 269 kts 158°
2026-05-04 12:10 38.32419 -0.84008 4202 ft 276 kts 126°
2026-05-04 12:10 38.31778 -0.81764 3729 ft 266 kts 99°
2026-05-04 12:10 38.31529 -0.79523 3396 ft 251 kts 102°
2026-05-04 12:11 38.31227 -0.77411 3239 ft 239 kts 102°
2026-05-04 12:11 38.30950 -0.75391 2966 ft 222 kts 102°
2026-05-04 12:11 38.30693 -0.73550 2656 ft 205 kts 102°
2026-05-04 12:11 38.30455 -0.71823 2353 ft 190 kts 102°
2026-05-04 12:12 38.30238 -0.70269 2151 ft 171 kts 102°
2026-05-04 12:12 38.30038 -0.68829 1891 ft 158 kts 103°
2026-05-04 12:12 38.29855 -0.67513 1673 ft 149 kts 103°
2026-05-04 12:12 38.29672 -0.66206 1492 ft 148 kts 103°
2026-05-04 12:13 38.29498 -0.64945 1308 ft 146 kts 103°
2026-05-04 12:14 38.28270 -0.56227 103 ft 103 kts 99°
2026-05-04 12:15 38.28180 -0.55582 91 ft 45 kts 99°
2026-05-04 12:15 38.28160 -0.55419 88 ft 1 kts 100°
2026-05-04 12:15 38.28147 -0.55328 86 ft 15 kts 99°
2026-05-04 12:15 38.28124 -0.55156 79 ft 23 kts 98°
2026-05-04 12:16 38.28136 -0.54926 69 ft 28 kts 75°
2026-05-04 12:16 38.28204 -0.54717 59 ft 19 kts 33°
2026-05-04 12:16 38.28256 -0.54797 62 ft 12 kts 279°
2026-05-04 12:16 38.28271 -0.54896 66 ft 8 kts 281°
2026-05-04 12:17 38.28280 -0.54949 68 ft 5 kts 279°
2026-05-04 12:17 38.28285 -0.55001 71 ft 6 kts 277°
2026-05-04 12:17 38.28297 -0.55107 77 ft 15 kts 278°
2026-05-04 12:17 38.28353 -0.55209 82 ft 15 kts 19°
2026-05-04 12:18 38.28421 -0.55088 75 ft 17 kts 91°
2026-05-04 12:18 38.28457 -0.54981 69 ft 15 kts 11°
2026-05-04 12:18 38.28567 -0.54961 68 ft 17 kts
2026-05-04 12:18 38.28692 -0.54930 66 ft 19 kts 12°
2026-05-04 12:19 38.28764 -0.54935 67 ft 4 kts 278°
2026-05-04 12:19 38.28765 -0.54952 68 ft 0 kts 276°
2026-05-04 12:19 38.28768 -0.54984 70 ft 5 kts 276°
2026-05-04 12:19 38.28771 -0.55005 71 ft 2 kts 279°
2026-05-04 12:20 38.28771 -0.55006 71 ft 0 kts 279°